Showing default

SPOT 7, 40053

Orbit data source: Space-Track

SPOT 7, 40053 is a payload satellite owned by CNES (AZ) in SSO that was launched on Mon, 30 Jun 2014 UTC via a PSLV launch vehicle from the Sirharikota (SRI). Payload-class satellites include a variety of spacecraft equipped with specific instruments for various scientific and technological missions. These include communications satellites like Starlink; space stations such as the ISS; scientific satellites like the Hubble; Earth observation satellites from companies like Planet Labs, Umbra, and HawkEye 360; GPS; miniature CubeSats for education and research; and military/defense satellites.

Loading next visibility...
Identifier
40053, 2014-034A
Orbit
SSO
Country
Flag of UnknownUnknown / AZER
Related business
Manufacturer
Airbus (UK)
Mission
Operational Commercial Imaging
Bus & Motor
ASTROSAT-500L, AOCS
Mass
712 kg wet, ~712 kg dry
Launch date (UTC)
2014-06-30 (11 years ago)
Launch vehicle
PSLV
Launch site
Sirharikota (SRI)
Object type
Payload
Rocket body
Debris
Shape & HBR
Hex Cyl + 3 Pan, 3.2 m
Radar Cross Section
9.390 m², Large (>1 m²)

Expand to show TLE details & history
Last TLE update: 11 hours ago

TLE from 11 hours ago
0 SPOT 7
1 40053U 14034A   25347.28992718  .00001186  00000-0  25255-3 0  9999
2 40053  98.0904  49.3524 0001573  87.7581 272.3800 14.60736219609997
Epoch: 2025-12-13T06:57Z
TLE epoch observation values (Epoch: 2025-12-13T06:57:29.708Z)
Latitude
-0.00001°
Longitude
-137.24071°
Altitude
693.741 km
Speed
7.509 km/s
True Right ascension
03h 17m 24s
True Declination
0° 00' 00"
Sunlit
Object was in full shadow at epoch
Visualization orbit readout
Latitude
Unknown
Longitude
Unknown
Altitude
Unknown
Speed
Unknown
Apparent Right ascension
Unknown
Apparent Declination
Unknown
Sunlit
N/A
Visualization observer readout
Local Sidereal Time
16:48:29
Azimuth
Unknown
Elevation
Unknown
Doppler factor
Unknown
Orbital elements
Apogee altitude
688.984 km
Perigee altitude
686.762 km
Semi-major axis
7,066.01 km
Eccentricity
0.00016
Inclination
98.0904°
RAAN
49.3524°
Arg. of periapsis
87.7581°
True anomaly
272.36199°
Mean anomaly
272.38°
Eccentric anomaly
272.371°
Mean motion
3.65411 °/min
Orbital period
98.52 mins
BSTAR
0.00025255
Loading maneuver chart data...
Computing Atmospheric mass density...
Loading historical data...
Loading historical data...
Loading historical data...
Loading historical data...
Loading historical data...
Loading historical data...
Loading historical data...
Other satellites on launch #34 in the year 2014 (2014-06-30 UTC)

Documentation

Showing up to 5 results
|